QPF
0.00 0.00 0.00 0.02 0.05 0.03 0.01 0.02 0.01 0.01 0.01 0.00 0.00 0.00 0.01 0.03 0.05 0.06 0.05 0.03 0.02 0.02 0.01 0.02 0.04 0.05 0.05 0.05 0.05 0.06 0.07 0.06 0.05 0.05 0.06 0.06 0.08 0.08 0.07 0.07 0.07 0.07 0.06 0.04 0.04 0.05 0.05 0.05 0.06
0.00 0.00 0.00 0.02 0.03 0.02 0.02 0.01 0.02 0.02 0.01 0.00 0.00 0.01 0.00 0.01 0.01 0.03 0.03 0.02 0.01 0.01 0.01 0.02 0.05 0.05 0.05 0.05 0.04 0.05 0.06 0.05 0.05 0.05 0.05 0.05 0.08 0.08 0.07 0.07 0.06 0.06 0.05 0.04 0.04 0.05 0.07 0.05 0.04
0.00 0.00 0.01 0.04 0.03 0.01 0.02 0.01 0.01 0.01 0.01 0.00 0.01 0.01 0.01 0.01 0.01 0.02 0.02 0.01 0.01 0.01 0.01 0.02 0.04 0.05 0.06 0.06 0.06 0.06 0.06 0.06 0.05 0.04 0.04 0.05 0.07 0.06 0.05 0.08 0.07 0.07 0.06 0.04 0.04 0.06 0.08 0.05 0.03
0.00 0.00 0.00 0.02 0.04 0.01 0.00 0.00 0.00 0.00 0.00 0.00 0.00 0.00 0.01 0.01 0.01 0.00 0.00 0.01 0.01 0.01 0.00 0.01 0.03 0.03 0.04 0.05 0.06 0.07 0.07 0.06 0.06 0.05 0.05 0.05 0.06 0.06 0.05 0.06 0.06 0.07 0.05 0.05 0.06 0.06 0.07 0.05 0.03
0.00 0.00 0.01 0.01 0.01 0.01 0.00 0.00 0.00 0.00 0.00 0.00 0.00 0.00 0.02 0.02 0.00 0.00 0.01 0.01 0.01 0.00 0.00 0.01 0.02 0.02 0.02 0.03 0.04 0.06 0.06 0.06 0.05 0.06 0.06 0.05 0.05 0.06 0.06 0.07 0.06 0.06 0.06 0.05 0.06 0.05 0.05 0.05 0.05
0.00 0.00 0.02 0.01 0.00 0.00 0.00 0.00 0.00 0.00 0.00 0.00 0.00 0.00 0.04 0.03 0.01 0.01 0.01 0.01 0.01 0.01 0.01 0.00 0.01 0.01 0.01 0.02 0.02 0.03 0.03 0.03 0.03 0.05 0.05 0.05 0.05 0.04 0.06 0.08 0.09 0.05 0.05 0.06 0.05 0.05 0.05 0.03 0.04
0.00 0.01 0.01 0.01 0.01 0.01 0.01 0.00 0.00 0.00 0.00 0.00 0.00 0.01 0.03 0.04 0.02 0.01 0.01 0.00 0.01 0.02 0.04 0.01 0.01 0.01 0.01 0.01 0.02 0.02 0.02 0.02 0.02 0.04 0.04 0.04 0.05 0.05 0.05 0.07 0.08 0.06 0.05 0.05 0.05 0.05 0.06 0.05 0.05
0.00 0.00 0.01 0.01 0.01 0.01 0.00 0.00 0.00 0.00 0.00 0.00 0.00 0.00 0.01 0.01 0.01 0.01 0.01 0.01 0.01 0.02 0.04 0.02 0.01 0.02 0.02 0.01 0.01 0.02 0.01 0.01 0.01 0.03 0.03 0.05 0.06 0.05 0.06 0.05 0.04 0.04 0.05 0.05 0.04 0.03 0.04 0.04 0.04
0.00 0.00 0.01 0.00 0.00 0.01 0.00 0.00 0.00 0.00 0.00 0.00 0.00 0.00 0.00 0.00 0.00 0.01 0.01 0.01 0.02 0.02 0.02 0.01 0.01 0.01 0.03 0.03 0.01 0.02 0.02 0.01 0.03 0.03 0.03 0.10 0.17 0.12 0.10 0.05 0.03 0.03 0.04 0.05 0.03 0.02 0.02 0.02 0.04
0.00 0.00 0.00 0.00 0.00 0.00 0.00 0.00 0.00 0.01 0.01 0.01 0.00 0.00 0.01 0.00 0.00 0.01 0.01 0.01 0.02 0.02 0.01 0.01 0.01 0.02 0.03 0.03 0.03 0.06 0.05 0.05 0.09 0.11 0.09 0.13 0.14 0.16 0.08 0.04 0.02 0.03 0.04 0.05 0.04 0.03 0.03 0.03 0.03
0.00 0.00 0.00 0.00 0.00 0.00 0.00 0.00 0.00 0.01 0.01 0.01 0.00 0.00 0.01 0.01 0.01 0.02 0.02 0.02 0.02 0.02 0.02 0.02 0.02 0.03 0.04 0.06 0.05 0.06 0.07 0.08 0.10 0.12 0.10 0.11 0.09 0.06 0.05 0.08 0.07 0.08 0.08 0.11 0.07 0.05 0.06 0.05 0.04
0.00 0.00 0.00 0.00 0.00 0.00 0.00 0.00 0.00 0.00 0.01 0.00 0.00 0.00 0.00 0.01 0.01 0.01 0.01 0.02 0.02 0.03 0.02 0.02 0.02 0.03 0.04 0.04 0.04 0.04 0.04 0.05 0.07 0.08 0.07 0.08 0.10 0.08 0.10 0.12 0.13 0.14 0.11 0.15 0.14 0.12 0.08 0.06 0.03
0.00 0.00 0.00 0.00 0.00 0.00 0.00 0.00 0.00 0.00 0.01 0.01 0.00 0.00 0.01 0.01 0.01 0.01 0.01 0.02 0.03 0.02 0.02 0.02 0.02 0.03 0.04 0.04 0.05 0.03 0.04 0.04 0.04 0.05 0.06 0.05 0.07 0.08 0.10 0.10 0.09 0.09 0.07 0.08 0.12 0.11 0.09 0.06 0.04
0.00 0.00 0.00 0.00 0.00 0.00 0.01 0.01 0.00 0.00 0.01 0.00 0.00 0.00 0.00 0.01 0.00 0.00 0.00 0.01 0.03 0.03 0.02 0.02 0.03 0.03 0.03 0.04 0.04 0.04 0.03 0.04 0.04 0.04 0.04 0.04 0.06 0.07 0.09 0.09 0.09 0.07 0.07 0.07 0.08 0.06 0.08 0.08 0.07
0.00 0.00 0.00 0.00 0.00 0.00 0.01 0.03 0.00 0.00 0.00 0.00 0.00 0.00 0.00 0.00 0.00 0.00 0.00 0.01 0.01 0.02 0.03 0.03 0.03 0.04 0.04 0.04 0.04 0.04 0.03 0.04 0.04 0.04 0.03 0.02 0.04 0.06 0.08 0.09 0.08 0.06 0.06 0.07 0.06 0.07 0.10 0.11 0.09
0.01 0.01 0.00 0.00 0.00 0.00 0.00 0.02 0.01 0.00 0.00 0.00 0.00 0.00 0.00 0.00 0.00 0.00 0.00 0.01 0.01 0.02 0.03 0.03 0.04 0.04 0.03 0.04 0.06 0.06 0.05 0.07 0.08 0.06 0.05 0.04 0.05 0.04 0.08 0.08 0.08 0.07 0.06 0.08 0.08 0.06 0.09 0.10 0.09
0.00 0.00 0.00 0.00 0.00 0.00 0.00 0.00 0.00 0.00 0.00 0.00 0.00 0.01 0.00 0.00 0.00 0.00 0.00 0.00 0.00 0.01 0.02 0.03 0.05 0.08 0.06 0.06 0.07 0.06 0.07 0.07 0.08 0.06 0.07 0.06 0.05 0.05 0.06 0.08 0.08 0.07 0.08 0.08 0.07 0.09 0.11 0.11 0.10
0.00 0.00 0.00 0.00 0.00 0.00 0.00 0.00 0.00 0.00 0.00 0.00 0.00 0.00 0.00 0.00 0.00 0.00 0.00 0.00 0.00 0.00 0.00 0.02 0.05 0.06 0.06 0.08 0.08 0.09 0.09 0.06 0.06 0.05 0.06 0.06 0.06 0.06 0.07 0.06 0.06 0.06 0.10 0.11 0.11 0.15 0.12 0.10 0.08
0.00 0.00 0.00 0.00 0.00 0.00 0.00 0.00 0.00 0.00 0.00 0.00 0.00 0.00 0.00 0.00 0.00 0.00 0.00 0.00 0.00 0.00 0.01 0.01 0.02 0.04 0.06 0.07 0.08 0.10 0.11 0.09 0.06 0.04 0.04 0.05 0.05 0.06 0.07 0.06 0.14 0.10 0.11 0.11 0.10 0.13 0.13 0.09 0.07
0.00 0.00 0.00 0.00 0.00 0.00 0.00 0.00 0.00 0.00 0.00 0.00 0.00 0.00 0.00 0.00 0.00 0.00 0.00 0.00 0.00 0.00 0.01 0.02 0.02 0.03 0.04 0.05 0.06 0.08 0.09 0.09 0.09 0.08 0.08 0.07 0.06 0.05 0.05 0.07 0.10 0.12 0.14 0.13 0.14 0.14 0.16 0.13 0.10
0.00 0.00 0.00 0.00 0.00 0.00 0.00 0.01 0.00 0.00 0.00 0.00 0.00 0.00 0.00 0.00 0.00 0.00 0.00 0.00 0.00 0.00 0.01 0.02 0.03 0.03 0.04 0.05 0.05 0.07 0.08 0.08 0.12 0.10 0.09 0.07 0.06 0.06 0.07 0.07 0.07 0.11 0.10 0.12 0.13 0.13 0.15 0.15 0.16
0.00 0.00 0.00 0.00 0.00 0.00 0.00 0.01 0.01 0.00 0.00 0.00 0.00 0.00 0.00 0.00 0.00 0.00 0.00 0.00 0.00 0.00 0.00 0.01 0.02 0.02 0.03 0.03 0.05 0.08 0.09 0.11 0.12 0.11 0.10 0.09 0.09 0.07 0.08 0.08 0.09 0.09 0.10 0.15 0.10 0.12 0.15 0.18 0.17
0.00 0.00 0.00 0.00 0.00 0.00 0.00 0.00 0.00 0.00 0.00 0.00 0.00 0.00 0.00 0.00 0.00 0.00 0.00 0.00 0.00 0.00 0.00 0.01 0.02 0.03 0.03 0.03 0.03 0.05 0.07 0.10 0.09 0.09 0.10 0.10 0.10 0.08 0.06 0.08 0.10 0.11 0.11 0.14 0.12 0.17 0.15 0.15 0.16
0.00 0.00 0.00 0.00 0.00 0.00 0.00 0.00 0.00 0.00 0.02 0.01 0.01 0.00 0.00 0.00 0.00 0.00 0.00 0.00 0.00 0.00 0.00 0.01 0.02 0.02 0.02 0.02 0.02 0.05 0.08 0.09 0.09 0.11 0.11 0.08 0.08 0.08 0.07 0.08 0.10 0.09 0.10 0.12 0.12 0.13 0.13 0.14 0.14
0.00 0.00 0.00 0.00 0.00 0.00 0.00 0.00 0.00 0.00 0.01 0.00 0.00 0.00 0.00 0.00 0.00 0.00 0.00 0.00 0.00 0.00 0.00 0.00 0.01 0.02 0.02 0.03 0.03 0.05 0.08 0.09 0.08 0.08 0.10 0.09 0.08 0.08 0.08 0.09 0.10 0.10 0.09 0.09 0.12 0.13 0.12 0.13 0.14
0.00 0.00 0.00 0.00 0.00 0.00 0.00 0.00 0.00 0.00 0.00 0.00 0.00 0.00 0.00 0.00 0.00 0.00 0.00 0.00 0.00 0.00 0.00 0.00 0.01 0.01 0.02 0.03 0.04 0.07 0.08 0.07 0.07 0.08 0.07 0.09 0.10 0.09 0.08 0.08 0.08 0.08 0.08 0.08 0.15 0.13 0.12 0.12 0.11
0.00 0.00 0.00 0.00 0.00 0.00 0.00 0.00 0.00 0.00 0.00 0.00 0.00 0.00 0.00 0.00 0.00 0.00 0.00 0.00 0.00 0.00 0.00 0.00 0.00 0.01 0.01 0.02 0.04 0.04 0.05 0.05 0.05 0.06 0.06 0.06 0.07 0.08 0.07 0.06 0.06 0.07 0.07 0.09 0.13 0.13 0.12 0.14 0.13
0.00 0.00 0.00 0.00 0.00 0.00 0.00 0.00 0.00 0.00 0.00 0.00 0.00 0.00 0.00 0.00 0.01 0.00 0.00 0.00 0.00 0.00 0.00 0.00 0.00 0.01 0.01 0.02 0.02 0.02 0.03 0.03 0.03 0.04 0.04 0.04 0.04 0.04 0.04 0.04 0.04 0.05 0.07 0.08 0.10 0.10 0.12 0.14 0.13
0.00 0.00 0.00 0.00 0.00 0.00 0.00 0.00 0.01 0.00 0.00 0.00 0.00 0.00 0.00 0.01 0.03 0.01 0.00 0.00 0.00 0.00 0.00 0.00 0.01 0.01 0.01 0.02 0.02 0.02 0.02 0.02 0.02 0.03 0.03 0.03 0.04 0.04 0.04 0.06 0.07 0.07 0.09 0.12 0.13 0.10 0.11 0.11 0.12
0.00 0.00 0.00 0.00 0.00 0.00 0.00 0.00 0.00 0.00 0.00 0.00 0.00 0.00 0.00 0.00 0.02 0.04 0.02 0.01 0.00 0.00 0.00 0.00 0.00 0.00 0.01 0.01 0.01 0.02 0.01 0.01 0.02 0.02 0.03 0.03 0.05 0.05 0.05 0.07 0.08 0.08 0.09 0.11 0.10 0.09 0.12 0.13 0.13
MSLP
1002.05 1003.16 1004.49 1005.85 1007.05 1007.96 1008.53 1008.78 1008.80 1008.73 1008.71 1008.82 1009.09 1009.49 1009.93 1010.32 1010.57 1010.66 1010.64 1010.58 1010.58 1010.73 1011.09 1011.64 1012.32 1013.01 1013.61 1014.02 1014.20 1014.18 1014.03 1013.85 1013.75 1013.79 1013.99 1014.33 1014.74 1015.13 1015.45 1015.63 1015.68 1015.64 1015.58 1015.55 1015.60 1015.76 1016.01 1016.31 1016.63
1002.02 1003.34 1004.83 1006.29 1007.53 1008.42 1008.90 1009.02 1008.89 1008.65 1008.46 1008.42 1008.56 1008.85 1009.21 1009.56 1009.83 1009.99 1010.07 1010.15 1010.32 1010.64 1011.15 1011.82 1012.57 1013.30 1013.89 1014.26 1014.41 1014.35 1014.18 1014.00 1013.91 1013.97 1014.18 1014.52 1014.91 1015.27 1015.53 1015.65 1015.66 1015.59 1015.53 1015.53 1015.62 1015.83 1016.12 1016.45 1016.77
1002.15 1003.63 1005.24 1006.77 1008.01 1008.84 1009.24 1009.25 1009.00 1008.66 1008.37 1008.25 1008.33 1008.57 1008.91 1009.25 1009.53 1009.73 1009.87 1010.03 1010.27 1010.67 1011.25 1011.96 1012.73 1013.44 1014.01 1014.37 1014.50 1014.44 1014.29 1014.15 1014.09 1014.18 1014.40 1014.72 1015.06 1015.35 1015.53 1015.59 1015.56 1015.49 1015.45 1015.49 1015.65 1015.91 1016.25 1016.60 1016.92
1002.43 1004.03 1005.71 1007.25 1008.46 1009.24 1009.55 1009.48 1009.17 1008.78 1008.47 1008.33 1008.41 1008.64 1008.98 1009.31 1009.59 1009.79 1009.93 1010.09 1010.35 1010.75 1011.31 1012.00 1012.75 1013.44 1013.98 1014.34 1014.48 1014.47 1014.38 1014.29 1014.29 1014.41 1014.63 1014.91 1015.19 1015.40 1015.51 1015.51 1015.45 1015.39 1015.40 1015.51 1015.74 1016.07 1016.44 1016.80 1017.10
1002.82 1004.50 1006.20 1007.71 1008.86 1009.56 1009.81 1009.69 1009.36 1008.98 1008.70 1008.60 1008.71 1008.97 1009.31 1009.63 1009.87 1010.03 1010.12 1010.23 1010.44 1010.78 1011.29 1011.94 1012.64 1013.30 1013.84 1014.21 1014.40 1014.46 1014.44 1014.43 1014.49 1014.63 1014.85 1015.09 1015.31 1015.44 1015.49 1015.45 1015.39 1015.37 1015.44 1015.63 1015.94 1016.32 1016.72 1017.07 1017.33
1003.28 1004.97 1006.63 1008.08 1009.14 1009.76 1009.96 1009.83 1009.52 1009.20 1008.99 1008.97 1009.13 1009.42 1009.75 1010.05 1010.24 1010.32 1010.33 1010.36 1010.48 1010.76 1011.20 1011.79 1012.45 1013.09 1013.65 1014.05 1014.31 1014.44 1014.51 1014.58 1014.69 1014.85 1015.06 1015.26 1015.42 1015.50 1015.51 1015.47 1015.43 1015.46 1015.61 1015.88 1016.25 1016.67 1017.08 1017.40 1017.61
1003.74 1005.37 1006.95 1008.28 1009.24 1009.78 1009.94 1009.82 1009.58 1009.34 1009.24 1009.31 1009.54 1009.87 1010.20 1010.44 1010.57 1010.56 1010.49 1010.43 1010.48 1010.68 1011.07 1011.62 1012.26 1012.91 1013.49 1013.94 1014.26 1014.47 1014.61 1014.73 1014.87 1015.05 1015.24 1015.41 1015.53 1015.59 1015.60 1015.58 1015.59 1015.69 1015.91 1016.24 1016.66 1017.10 1017.48 1017.76 1017.90
1004.15 1005.66 1007.09 1008.28 1009.12 1009.58 1009.73 1009.65 1009.48 1009.36 1009.38 1009.56 1009.86 1010.22 1010.54 1010.75 1010.81 1010.73 1010.59 1010.46 1010.45 1010.61 1010.97 1011.51 1012.15 1012.81 1013.42 1013.91 1014.28 1014.54 1014.72 1014.88 1015.04 1015.21 1015.39 1015.54 1015.66 1015.72 1015.75 1015.78 1015.86 1016.03 1016.31 1016.68 1017.11 1017.53 1017.88 1018.09 1018.16
1004.47 1005.83 1007.08 1008.09 1008.80 1009.19 1009.32 1009.29 1009.23 1009.24 1009.38 1009.67 1010.05 1010.44 1010.76 1010.94 1010.96 1010.83 1010.64 1010.49 1010.45 1010.61 1010.97 1011.51 1012.16 1012.84 1013.47 1013.99 1014.38 1014.65 1014.85 1015.01 1015.16 1015.33 1015.50 1015.66 1015.79 1015.89 1015.97 1016.06 1016.21 1016.44 1016.75 1017.14 1017.55 1017.93 1018.20 1018.34 1018.34
1004.73 1005.90 1006.94 1007.77 1008.34 1008.66 1008.79 1008.82 1008.86 1008.99 1009.26 1009.65 1010.10 1010.54 1010.87 1011.04 1011.04 1010.90 1010.70 1010.55 1010.53 1010.70 1011.08 1011.63 1012.30 1012.98 1013.61 1014.13 1014.51 1014.77 1014.95 1015.10 1015.24 1015.39 1015.56 1015.74 1015.91 1016.07 1016.22 1016.39 1016.60 1016.87 1017.19 1017.56 1017.92 1018.22 1018.41 1018.47 1018.40
1004.97 1005.93 1006.76 1007.41 1007.84 1008.09 1008.21 1008.30 1008.43 1008.68 1009.06 1009.54 1010.05 1010.53 1010.88 1011.06 1011.07 1010.95 1010.79 1010.67 1010.69 1010.89 1011.30 1011.86 1012.52 1013.19 1013.80 1014.28 1014.63 1014.86 1015.01 1015.12 1015.24 1015.39 1015.57 1015.79 1016.01 1016.24 1016.47 1016.71 1016.97 1017.26 1017.57 1017.89 1018.17 1018.38 1018.49 1018.47 1018.35
1005.24 1006.00 1006.63 1007.10 1007.41 1007.59 1007.70 1007.83 1008.03 1008.36 1008.81 1009.36 1009.92 1010.43 1010.81 1011.02 1011.07 1011.00 1010.89 1010.83 1010.90 1011.14 1011.57 1012.13 1012.77 1013.41 1013.97 1014.40 1014.70 1014.88 1014.99 1015.07 1015.18 1015.33 1015.54 1015.80 1016.09 1016.39 1016.69 1016.99 1017.28 1017.57 1017.85 1018.10 1018.30 1018.42 1018.44 1018.37 1018.22
1005.60 1006.17 1006.62 1006.94 1007.13 1007.24 1007.34 1007.48 1007.71 1008.08 1008.56 1009.13 1009.71 1010.24 1010.65 1010.90 1011.01 1011.02 1010.98 1011.00 1011.12 1011.39 1011.82 1012.37 1012.98 1013.56 1014.06 1014.44 1014.69 1014.83 1014.91 1014.97 1015.07 1015.23 1015.47 1015.77 1016.12 1016.48 1016.84 1017.18 1017.49 1017.76 1017.99 1018.18 1018.30 1018.35 1018.31 1018.21 1018.06
1006.06 1006.48 1006.77 1006.96 1007.05 1007.10 1007.16 1007.28 1007.50 1007.84 1008.31 1008.85 1009.42 1009.94 1010.37 1010.68 1010.86 1010.95 1011.00 1011.10 1011.28 1011.58 1012.01 1012.53 1013.08 1013.62 1014.06 1014.40 1014.61 1014.73 1014.79 1014.85 1014.95 1015.13 1015.39 1015.72 1016.10 1016.51 1016.90 1017.26 1017.57 1017.82 1018.01 1018.14 1018.21 1018.21 1018.16 1018.05 1017.92
1006.60 1006.89 1007.07 1007.15 1007.17 1007.16 1007.16 1007.22 1007.38 1007.65 1008.04 1008.51 1009.01 1009.51 1009.95 1010.30 1010.56 1010.75 1010.91 1011.09 1011.33 1011.66 1012.09 1012.58 1013.09 1013.57 1013.99 1014.30 1014.50 1014.62 1014.69 1014.76 1014.88 1015.06 1015.33 1015.67 1016.06 1016.47 1016.87 1017.23 1017.53 1017.76 1017.92 1018.02 1018.07 1018.06 1018.02 1017.95 1017.87
1007.15 1007.34 1007.44 1007.46 1007.42 1007.36 1007.30 1007.27 1007.33 1007.48 1007.73 1008.08 1008.49 1008.94 1009.38 1009.78 1010.13 1010.43 1010.70 1010.97 1011.28 1011.64 1012.06 1012.53 1013.02 1013.47 1013.87 1014.19 1014.41 1014.56 1014.66 1014.76 1014.89 1015.07 1015.32 1015.64 1016.00 1016.38 1016.76 1017.09 1017.38 1017.60 1017.75 1017.86 1017.91 1017.94 1017.94 1017.93 1017.92
1007.63 1007.75 1007.81 1007.80 1007.75 1007.65 1007.52 1007.40 1007.32 1007.30 1007.39 1007.58 1007.87 1008.25 1008.68 1009.13 1009.57 1009.99 1010.38 1010.77 1011.15 1011.55 1011.98 1012.44 1012.91 1013.36 1013.77 1014.11 1014.39 1014.59 1014.74 1014.87 1015.00 1015.17 1015.38 1015.64 1015.95 1016.27 1016.59 1016.90 1017.16 1017.37 1017.55 1017.68 1017.78 1017.86 1017.93 1018.00 1018.06
1007.95 1008.05 1008.12 1008.13 1008.09 1007.98 1007.81 1007.58 1007.34 1007.14 1007.03 1007.04 1007.20 1007.49 1007.92 1008.42 1008.96 1009.51 1010.04 1010.53 1011.00 1011.45 1011.89 1012.35 1012.81 1013.27 1013.71 1014.11 1014.45 1014.72 1014.93 1015.09 1015.23 1015.37 1015.52 1015.70 1015.92 1016.16 1016.42 1016.67 1016.92 1017.14 1017.33 1017.51 1017.67 1017.82 1017.97 1018.11 1018.24
1008.10 1008.22 1008.33 1008.42 1008.44 1008.35 1008.14 1007.81 1007.42 1007.03 1006.71 1006.54 1006.55 1006.77 1007.18 1007.74 1008.39 1009.07 1009.73 1010.34 1010.88 1011.38 1011.85 1012.30 1012.76 1013.23 1013.70 1014.16 1014.57 1014.92 1015.19 1015.39 1015.53 1015.63 1015.71 1015.80 1015.92 1016.07 1016.25 1016.46 1016.69 1016.92 1017.14 1017.37 1017.59 1017.80 1018.02 1018.22 1018.40
1008.07 1008.25 1008.48 1008.68 1008.80 1008.76 1008.54 1008.13 1007.60 1007.02 1006.50 1006.14 1006.02 1006.16 1006.56 1007.17 1007.93 1008.74 1009.53 1010.24 1010.86 1011.40 1011.87 1012.31 1012.76 1013.23 1013.73 1014.23 1014.71 1015.13 1015.46 1015.70 1015.84 1015.91 1015.93 1015.93 1015.96 1016.02 1016.13 1016.30 1016.50 1016.74 1017.00 1017.26 1017.52 1017.78 1018.03 1018.26 1018.47
1007.92 1008.22 1008.60 1008.96 1009.21 1009.25 1009.04 1008.57 1007.91 1007.16 1006.46 1005.93 1005.67 1005.74 1006.13 1006.80 1007.65 1008.57 1009.47 1010.27 1010.95 1011.50 1011.95 1012.37 1012.78 1013.24 1013.74 1014.27 1014.80 1015.28 1015.67 1015.94 1016.10 1016.14 1016.12 1016.06 1016.00 1016.00 1016.05 1016.18 1016.38 1016.62 1016.89 1017.17 1017.45 1017.72 1017.97 1018.19 1018.39
1007.76 1008.21 1008.77 1009.31 1009.71 1009.84 1009.65 1009.14 1008.37 1007.47 1006.60 1005.92 1005.55 1005.55 1005.93 1006.64 1007.56 1008.57 1009.55 1010.41 1011.12 1011.66 1012.08 1012.44 1012.80 1013.20 1013.68 1014.22 1014.77 1015.30 1015.74 1016.05 1016.23 1016.28 1016.23 1016.13 1016.04 1015.99 1016.01 1016.12 1016.30 1016.53 1016.80 1017.08 1017.34 1017.59 1017.80 1017.98 1018.14
1007.67 1008.29 1009.05 1009.77 1010.31 1010.53 1010.37 1009.81 1008.95 1007.92 1006.91 1006.10 1005.62 1005.56 1005.93 1006.65 1007.62 1008.70 1009.73 1010.62 1011.32 1011.83 1012.19 1012.48 1012.76 1013.10 1013.53 1014.05 1014.61 1015.16 1015.64 1016.00 1016.20 1016.27 1016.24 1016.13 1016.03 1015.96 1015.97 1016.06 1016.24 1016.46 1016.72 1016.96 1017.19 1017.37 1017.52 1017.63 1017.72
1007.69 1008.49 1009.42 1010.31 1010.96 1011.26 1011.11 1010.52 1009.58 1008.44 1007.31 1006.39 1005.83 1005.72 1006.06 1006.79 1007.78 1008.88 1009.93 1010.83 1011.51 1011.97 1012.26 1012.45 1012.65 1012.91 1013.28 1013.76 1014.31 1014.87 1015.38 1015.77 1016.02 1016.12 1016.11 1016.03 1015.93 1015.88 1015.89 1015.99 1016.16 1016.37 1016.60 1016.80 1016.97 1017.08 1017.14 1017.17 1017.19
1007.82 1008.79 1009.86 1010.86 1011.59 1011.93 1011.77 1011.15 1010.14 1008.92 1007.71 1006.71 1006.08 1005.92 1006.23 1006.95 1007.94 1009.04 1010.09 1010.97 1011.61 1012.02 1012.24 1012.36 1012.47 1012.65 1012.96 1013.39 1013.92 1014.47 1014.99 1015.41 1015.70 1015.84 1015.86 1015.82 1015.75 1015.71 1015.74 1015.85 1016.02 1016.22 1016.42 1016.58 1016.68 1016.72 1016.70 1016.65 1016.59
1008.03 1009.10 1010.26 1011.31 1012.08 1012.41 1012.24 1011.58 1010.53 1009.26 1008.01 1006.96 1006.30 1006.10 1006.39 1007.08 1008.04 1009.12 1010.14 1010.99 1011.59 1011.95 1012.12 1012.18 1012.23 1012.36 1012.61 1013.00 1013.49 1014.03 1014.55 1014.98 1015.29 1015.46 1015.52 1015.50 1015.47 1015.46 1015.51 1015.62 1015.79 1015.99 1016.16 1016.29 1016.34 1016.31 1016.23 1016.11 1016.00
1008.22 1009.34 1010.51 1011.56 1012.30 1012.60 1012.40 1011.71 1010.64 1009.38 1008.12 1007.08 1006.41 1006.20 1006.46 1007.12 1008.05 1009.08 1010.05 1010.86 1011.43 1011.76 1011.89 1011.92 1011.95 1012.04 1012.26 1012.62 1013.08 1013.60 1014.11 1014.54 1014.85 1015.03 1015.11 1015.12 1015.10 1015.12 1015.18 1015.31 1015.48 1015.67 1015.83 1015.93 1015.96 1015.89 1015.77 1015.61 1015.47
1008.32 1009.42 1010.54 1011.52 1012.18 1012.42 1012.18 1011.49 1010.45 1009.23 1008.03 1007.04 1006.40 1006.20 1006.45 1007.07 1007.94 1008.90 1009.82 1010.58 1011.11 1011.43 1011.56 1011.60 1011.63 1011.73 1011.94 1012.29 1012.73 1013.22 1013.71 1014.12 1014.41 1014.59 1014.68 1014.69 1014.69 1014.71 1014.78 1014.92 1015.09 1015.28 1015.44 1015.54 1015.55 1015.48 1015.34 1015.18 1015.03
1008.30 1009.31 1010.31 1011.15 1011.70 1011.86 1011.59 1010.92 1009.95 1008.82 1007.74 1006.85 1006.29 1006.13 1006.37 1006.94 1007.74 1008.62 1009.47 1010.16 1010.67 1010.97 1011.13 1011.20 1011.27 1011.40 1011.64 1011.99 1012.43 1012.91 1013.36 1013.74 1014.02 1014.18 1014.25 1014.26 1014.25 1014.28 1014.35 1014.48 1014.66 1014.85 1015.01 1015.12 1015.15 1015.09 1014.97 1014.82 1014.68
1008.17 1009.02 1009.85 1010.52 1010.93 1011.00 1010.70 1010.08 1009.22 1008.24 1007.32 1006.58 1006.13 1006.03 1006.26 1006.79 1007.50 1008.29 1009.03 1009.65 1010.11 1010.41 1010.59 1010.71 1010.84 1011.03 1011.32 1011.70 1012.15 1012.61 1013.05 1013.41 1013.66 1013.80 1013.85 1013.85 1013.84 1013.85 1013.92 1014.05 1014.22 1014.41 1014.58 1014.70 1014.75 1014.73 1014.64 1014.52 1014.41
Thickness
5866 5867 5863 5853 5831 5818 5807 5814 5821 5817 5817 5826 5827 5817 5803 5796 5784 5769 5793 5799 5795 5787 5780 5776 5775 5774 5773 5771 5771 5770 5769 5768 5767 5766 5765 5764 5764 5764 5763 5762 5762 5761 5760 5759 5759 5758 5756 5755 5755
5876 5877 5864 5847 5824 5804 5803 5817 5816 5818 5825 5830 5825 5815 5803 5796 5801 5796 5797 5798 5796 5790 5783 5778 5774 5773 5772 5770 5769 5768 5767 5766 5765 5764 5763 5763 5762 5762 5761 5761 5760 5760 5759 5758 5757 5757 5756 5754 5753
5879 5878 5857 5845 5828 5812 5808 5821 5823 5829 5835 5829 5816 5812 5801 5795 5801 5799 5801 5802 5798 5791 5783 5777 5773 5772 5770 5769 5768 5767 5766 5765 5764 5763 5762 5761 5761 5760 5760 5759 5759 5758 5758 5757 5756 5755 5754 5753 5752
5881 5871 5862 5845 5827 5831 5830 5833 5835 5829 5831 5831 5819 5803 5802 5810 5807 5806 5808 5804 5798 5790 5782 5776 5773 5771 5769 5767 5766 5765 5764 5763 5762 5761 5761 5760 5759 5759 5758 5758 5757 5757 5756 5756 5755 5754 5753 5752 5751
5886 5864 5846 5837 5834 5841 5847 5846 5842 5829 5825 5824 5815 5796 5794 5810 5814 5811 5808 5804 5798 5791 5783 5775 5772 5770 5768 5767 5765 5764 5763 5762 5761 5760 5759 5758 5758 5757 5757 5756 5756 5755 5755 5755 5754 5753 5752 5750 5750
5870 5863 5836 5829 5834 5844 5851 5852 5844 5832 5826 5823 5813 5797 5794 5810 5810 5810 5809 5805 5800 5792 5783 5775 5771 5769 5767 5766 5764 5763 5762 5761 5760 5759 5759 5758 5757 5756 5756 5755 5754 5754 5753 5753 5752 5751 5750 5749 5749
5867 5856 5839 5842 5837 5839 5850 5857 5844 5834 5827 5826 5822 5798 5796 5806 5810 5812 5808 5804 5799 5793 5784 5777 5772 5769 5767 5765 5763 5762 5761 5760 5759 5758 5758 5757 5756 5755 5755 5754 5753 5752 5752 5752 5751 5750 5749 5749 5748
5893 5867 5847 5848 5839 5839 5855 5856 5849 5839 5829 5839 5832 5805 5794 5805 5813 5811 5807 5802 5797 5793 5787 5781 5777 5772 5768 5765 5762 5761 5760 5759 5758 5758 5757 5756 5756 5755 5754 5753 5752 5751 5751 5751 5750 5749 5749 5748 5748
5904 5864 5847 5849 5846 5847 5860 5851 5849 5853 5841 5837 5836 5824 5816 5816 5814 5806 5800 5796 5793 5790 5788 5785 5781 5776 5772 5769 5764 5761 5760 5759 5758 5757 5757 5756 5756 5756 5754 5753 5752 5751 5750 5750 5749 5748 5748 5748 5748
5892 5859 5858 5870 5869 5861 5862 5856 5852 5843 5831 5825 5823 5822 5820 5816 5809 5801 5795 5790 5788 5787 5788 5786 5784 5780 5776 5773 5766 5764 5762 5760 5759 5759 5758 5757 5757 5757 5756 5753 5752 5751 5750 5749 5749 5748 5748 5748 5749
5890 5872 5875 5879 5880 5875 5865 5861 5862 5843 5827 5826 5818 5815 5816 5812 5807 5802 5798 5795 5792 5790 5788 5787 5784 5781 5777 5774 5770 5767 5765 5762 5761 5760 5760 5759 5759 5758 5756 5754 5752 5751 5750 5750 5749 5748 5749 5750 5751
5886 5884 5885 5884 5885 5877 5869 5865 5858 5850 5842 5844 5836 5827 5818 5812 5807 5805 5801 5798 5796 5791 5789 5787 5784 5780 5776 5774 5772 5769 5767 5765 5764 5761 5761 5761 5760 5759 5758 5756 5754 5753 5753 5752 5751 5751 5751 5752 5753
5882 5882 5889 5891 5888 5880 5872 5864 5857 5852 5855 5851 5840 5830 5821 5816 5813 5812 5808 5803 5798 5792 5790 5787 5783 5778 5774 5772 5770 5770 5768 5768 5766 5764 5762 5762 5761 5760 5759 5758 5757 5755 5754 5753 5753 5752 5753 5753 5754
5884 5886 5888 5890 5885 5879 5863 5858 5856 5851 5857 5848 5838 5830 5826 5821 5818 5813 5808 5803 5798 5794 5791 5788 5783 5778 5774 5771 5769 5769 5769 5768 5768 5766 5764 5762 5762 5761 5760 5758 5757 5757 5756 5756 5755 5755 5754 5755 5755
5889 5877 5879 5886 5886 5878 5864 5842 5850 5858 5858 5845 5839 5834 5829 5825 5822 5815 5811 5806 5803 5798 5794 5790 5785 5780 5775 5772 5770 5770 5770 5769 5768 5767 5765 5763 5762 5761 5760 5759 5758 5758 5758 5757 5756 5756 5756 5755 5755
5878 5868 5857 5878 5886 5881 5859 5828 5851 5865 5856 5844 5841 5836 5830 5827 5825 5821 5817 5812 5807 5802 5796 5792 5790 5783 5778 5774 5772 5771 5771 5770 5768 5767 5766 5764 5762 5761 5760 5760 5759 5759 5759 5758 5757 5757 5756 5755 5756
5865 5853 5855 5870 5887 5884 5866 5842 5857 5869 5859 5847 5843 5838 5832 5827 5826 5824 5821 5816 5811 5805 5799 5794 5791 5786 5781 5777 5773 5772 5771 5769 5768 5768 5766 5764 5763 5762 5760 5760 5760 5759 5759 5759 5759 5758 5756 5754 5755
5851 5860 5863 5866 5882 5880 5866 5857 5864 5870 5863 5852 5847 5842 5835 5829 5827 5828 5825 5820 5815 5809 5803 5797 5793 5789 5784 5780 5775 5773 5771 5770 5768 5768 5766 5765 5764 5763 5761 5761 5761 5760 5759 5758 5758 5756 5756 5755 5755
5870 5865 5862 5873 5888 5877 5867 5863 5866 5870 5865 5856 5850 5845 5838 5834 5835 5833 5828 5824 5817 5811 5805 5800 5794 5791 5786 5781 5776 5772 5769 5770 5769 5769 5767 5766 5764 5763 5762 5761 5760 5760 5758 5757 5757 5756 5754 5753 5755
5867 5859 5862 5876 5887 5876 5868 5866 5874 5873 5868 5864 5856 5849 5844 5839 5836 5833 5830 5826 5820 5813 5808 5803 5798 5794 5790 5785 5781 5777 5774 5772 5772 5771 5769 5767 5765 5763 5763 5760 5759 5759 5757 5756 5756 5755 5752 5752 5754
5862 5860 5863 5866 5877 5878 5865 5851 5861 5871 5876 5871 5867 5861 5855 5847 5839 5835 5831 5828 5824 5817 5812 5808 5802 5798 5793 5790 5785 5781 5776 5773 5770 5769 5768 5767 5766 5764 5763 5761 5760 5759 5757 5755 5754 5754 5751 5748 5751
5852 5875 5872 5867 5858 5852 5859 5829 5848 5859 5864 5866 5866 5863 5860 5856 5848 5841 5835 5831 5827 5823 5819 5814 5807 5802 5797 5792 5787 5780 5774 5770 5770 5770 5769 5768 5767 5766 5764 5762 5760 5758 5757 5756 5754 5754 5753 5749 5747
5863 5879 5873 5866 5856 5848 5857 5842 5841 5859 5852 5860 5866 5868 5866 5862 5855 5847 5842 5837 5834 5830 5824 5818 5811 5804 5800 5795 5790 5783 5778 5776 5774 5773 5770 5768 5767 5766 5765 5764 5761 5759 5757 5756 5755 5754 5753 5751 5749
5873 5867 5863 5860 5852 5827 5849 5844 5834 5853 5852 5858 5869 5873 5871 5867 5861 5854 5850 5844 5838 5835 5829 5822 5813 5806 5802 5797 5792 5787 5781 5777 5774 5771 5768 5768 5767 5767 5766 5764 5762 5759 5757 5756 5755 5754 5753 5752 5751
5861 5839 5820 5815 5816 5821 5856 5850 5848 5870 5878 5876 5875 5875 5874 5870 5864 5856 5849 5844 5839 5835 5830 5824 5815 5807 5803 5798 5793 5790 5785 5780 5776 5772 5770 5768 5767 5766 5765 5764 5761 5759 5758 5756 5755 5753 5752 5752 5750
5851 5844 5815 5801 5806 5820 5840 5839 5860 5886 5889 5890 5886 5882 5877 5871 5867 5859 5853 5847 5841 5836 5832 5826 5817 5810 5805 5800 5795 5792 5787 5783 5779 5776 5773 5771 5769 5768 5767 5765 5762 5760 5758 5757 5756 5754 5752 5752 5751
5844 5844 5857 5839 5833 5825 5830 5848 5866 5884 5882 5882 5882 5877 5873 5871 5869 5862 5856 5851 5844 5838 5834 5829 5820 5813 5808 5803 5798 5793 5789 5785 5781 5779 5776 5773 5771 5770 5767 5765 5762 5760 5759 5757 5756 5754 5753 5752 5751
5858 5855 5847 5832 5813 5807 5828 5837 5844 5859 5866 5872 5874 5873 5872 5869 5865 5863 5859 5854 5848 5843 5837 5832 5824 5817 5811 5807 5801 5796 5791 5787 5783 5780 5776 5773 5771 5769 5767 5764 5763 5761 5759 5758 5756 5754 5754 5751 5750
5842 5840 5838 5836 5833 5813 5808 5826 5865 5861 5868 5869 5872 5873 5870 5868 5864 5861 5856 5855 5851 5846 5839 5832 5825 5818 5813 5808 5803 5799 5793 5789 5785 5780 5777 5774 5771 5768 5766 5764 5762 5760 5759 5757 5755 5753 5752 5750 5748
5850 5843 5838 5816 5814 5823 5817 5828 5874 5875 5876 5875 5874 5874 5872 5870 5867 5863 5854 5852 5850 5845 5839 5833 5827 5821 5815 5811 5805 5799 5795 5790 5786 5782 5779 5776 5772 5769 5766 5764 5761 5759 5758 5756 5753 5750 5750 5747 5745